Voltar ao catálogo

STARLINK-2046

AtivoComunicaçõesVLEO
NORAD 47354·PAYLOAD·🇺🇸 United States

Lançado Jan 20, 2021 de Cape Canaveral Space Force Station

Loading…

Próximas Passagens (próximas 24 horas)

TLE

AtualizadoSource: CelesTrak SupGP

Época: Sep 15, 2026, 02:14 UTC

1 47354C 21005F   26258.09354167 -.00003734  00000+0 -11273-3 0  2582
2 47354  53.1564 222.3075 0003455  76.2123  92.4775 15.33707411    15

Acompanhe STARLINK-2046 em tempo real com AllMySat

Download on the App Store